Theta_e
349 347 348 346 345 346 348 349 351 351 351 351 351 352 352 351 352 352 351 351 350 349 347 348 350 351 350 350 349 348 348 347 348 350 348 345 347 349 349 350 350 350 350 352 353 353 352 353 354 354 354 353 353 354 353 352 351 351 351 350 350 349 348 349 348 346 345 344 341 341 341 341 343 344 343 342 341 342 343 341 342 343 343 342 342
349 348 347 346 346 346 348 349 350 352 352 351 352 351 352 351 351 353 352 352 352 350 349 349 350 350 350 349 348 347 347 347 349 351 349 349 349 349 350 351 349 349 352 354 354 355 354 354 354 355 356 355 355 355 355 354 351 350 351 351 350 349 348 348 346 345 344 343 341 342 345 343 342 343 343 342 342 342 342 341 340 340 341 342 341
349 348 348 347 347 347 347 350 350 351 351 351 351 351 351 351 350 351 352 352 352 350 349 348 348 348 347 348 347 347 348 348 349 350 350 350 350 350 349 348 347 348 352 354 354 355 355 354 354 355 356 356 356 355 354 353 350 350 351 351 351 349 348 348 346 345 344 344 343 346 352 351 348 345 342 341 341 341 340 339 339 339 340 342 341
350 348 349 348 347 346 348 350 350 351 351 351 351 351 351 351 349 350 350 349 349 349 347 346 346 347 347 347 347 348 348 348 349 349 349 349 349 351 349 345 344 346 349 352 354 355 355 355 354 355 356 356 355 354 354 354 352 352 351 351 351 350 350 349 348 347 345 344 344 349 350 351 355 351 344 343 343 341 340 339 339 340 340 341 341
351 349 348 348 346 347 348 350 350 350 351 351 351 351 351 351 350 349 349 348 347 347 346 346 347 348 348 348 347 348 348 348 349 348 348 350 350 350 349 346 346 346 346 350 353 354 354 355 354 355 356 355 355 355 355 355 354 354 353 353 351 350 350 350 349 348 348 347 346 349 348 350 359 353 345 348 345 341 342 341 341 341 341 340 340
352 349 348 348 346 347 349 350 350 351 351 351 351 351 351 351 351 350 349 348 347 346 346 346 348 348 348 349 348 347 347 348 348 348 348 351 352 349 349 350 349 347 346 350 354 353 354 356 356 355 354 354 355 356 355 354 355 353 353 353 352 351 351 351 352 352 351 349 347 349 347 348 355 351 351 355 349 343 343 343 344 341 340 342 342
352 349 349 349 347 347 348 349 350 350 351 351 351 351 350 351 351 350 349 349 348 346 346 347 348 348 349 349 347 346 346 347 347 347 349 353 352 348 350 353 351 348 347 351 354 354 355 355 356 356 354 354 355 355 355 354 354 353 352 353 353 353 351 349 353 355 353 351 349 348 346 344 344 346 354 356 352 349 343 340 344 343 343 345 344
353 349 350 349 347 348 348 349 350 350 351 351 351 351 350 350 351 349 349 349 348 347 347 348 348 348 350 349 347 347 346 346 347 347 349 352 351 348 352 354 352 350 350 354 354 354 355 354 354 356 355 354 354 354 355 353 352 352 352 353 354 353 350 349 353 354 354 353 350 346 345 344 341 343 346 345 350 357 354 348 346 344 345 346 345
355 350 350 349 347 348 348 348 349 350 351 352 352 352 350 350 350 349 349 349 349 348 348 349 348 348 349 349 348 348 347 347 348 348 349 352 350 349 352 354 352 352 354 354 353 353 354 353 353 355 355 355 355 354 354 352 352 351 352 353 355 353 349 351 353 353 354 355 352 347 344 344 343 342 342 342 347 355 361 360 350 344 347 346 345
360 352 349 349 348 348 348 348 349 350 351 352 352 353 352 351 350 350 349 349 349 350 350 349 349 349 349 349 349 348 348 347 348 349 350 351 350 348 351 353 352 354 356 354 353 354 354 354 353 352 354 355 356 355 353 353 352 351 352 354 354 353 352 354 355 355 355 355 353 350 346 346 344 343 342 342 344 345 352 356 348 345 350 348 346
362 356 349 349 349 348 349 348 348 350 351 351 352 352 353 352 351 351 350 351 351 351 352 350 349 350 349 348 348 348 348 347 349 350 350 350 350 349 351 353 352 353 355 354 354 355 356 355 354 352 353 355 356 355 353 353 352 352 355 356 353 354 356 356 356 356 356 355 354 353 350 350 348 345 344 342 343 345 351 353 347 347 351 349 348
358 355 349 349 350 349 349 349 348 350 350 351 352 352 353 352 352 351 351 351 351 351 352 350 350 350 349 348 347 347 348 348 349 350 350 350 350 351 352 353 353 353 354 354 354 355 355 355 355 354 353 355 357 355 353 353 353 352 354 354 353 354 356 356 355 356 356 354 354 353 353 352 350 349 346 343 342 343 348 352 348 350 352 350 347
354 353 349 349 351 349 349 349 348 350 349 350 352 352 352 353 352 352 352 351 350 351 352 350 349 349 349 348 347 347 347 349 350 350 349 350 350 351 353 353 354 353 353 354 355 355 355 354 354 355 355 355 355 355 354 354 354 353 352 352 352 352 354 355 355 355 354 353 353 355 355 352 350 349 346 344 345 344 347 349 348 350 351 348 347
354 353 350 349 351 351 350 349 348 349 350 350 352 353 352 352 352 352 353 351 350 351 352 350 349 348 350 350 347 346 347 348 350 351 350 349 350 351 352 352 353 353 352 353 354 354 355 355 354 355 356 356 356 355 355 354 354 353 353 353 353 353 354 355 355 355 354 354 355 354 354 352 350 349 347 346 346 345 346 348 348 350 350 347 346
354 354 353 350 350 352 351 350 349 349 349 350 352 353 352 352 352 352 353 352 351 352 353 350 349 349 350 352 351 347 348 350 350 351 351 349 349 350 350 351 352 352 352 353 353 354 354 354 355 356 356 357 356 355 355 354 354 355 355 354 354 355 355 355 355 355 355 355 355 354 353 352 351 350 349 349 348 346 345 346 348 353 357 354 348
357 356 357 353 349 351 352 351 350 349 348 351 353 352 353 352 351 351 353 353 352 352 353 352 350 349 350 352 353 350 350 352 351 352 352 349 349 350 349 351 352 352 354 354 354 355 354 355 355 356 356 356 355 355 355 355 355 356 356 355 355 356 357 356 356 355 355 355 356 355 354 353 352 351 351 351 350 348 346 346 347 349 355 358 358
357 358 360 356 350 350 351 350 350 350 348 351 353 352 353 353 351 351 353 353 353 353 353 352 352 351 351 352 354 352 351 351 352 353 353 352 352 352 352 353 354 354 354 355 355 355 355 355 355 355 355 355 354 354 355 357 357 357 356 355 355 355 356 357 357 356 355 355 355 355 356 355 353 351 351 352 351 349 347 347 348 347 349 353 359
353 355 356 353 348 347 351 351 351 350 349 351 353 353 353 352 352 351 352 354 353 353 353 353 353 353 353 352 353 352 351 351 352 352 353 353 353 353 354 355 355 354 352 352 353 353 354 355 354 354 354 355 355 355 355 358 359 358 357 357 357 356 356 357 358 358 356 355 356 356 357 356 355 353 352 351 350 350 348 348 348 349 349 349 350
353 353 352 350 347 347 350 350 351 351 349 350 353 353 353 352 352 351 351 353 354 353 354 354 354 355 354 353 353 353 352 351 352 353 352 352 352 352 352 353 354 353 352 352 352 352 352 353 353 353 353 355 355 355 356 357 358 358 357 358 358 358 358 358 359 359 357 356 356 356 356 355 354 353 353 352 351 351 351 349 349 349 349 348 345
354 357 356 352 348 347 348 349 350 350 349 351 353 353 353 353 353 352 351 352 354 353 354 354 355 355 354 353 353 353 353 352 352 353 353 353 353 353 352 352 352 351 351 351 351 351 352 352 351 351 354 355 355 356 356 356 357 357 357 357 357 357 359 359 358 358 357 357 356 356 357 356 354 353 353 354 354 353 352 350 349 349 349 349 347
350 355 357 353 348 346 348 349 349 349 349 351 352 352 352 352 353 352 351 353 354 354 354 354 355 355 355 354 354 354 354 353 353 352 352 352 352 352 352 352 351 351 351 351 350 351 351 351 351 351 353 355 355 356 356 355 356 357 357 357 357 357 357 357 358 358 358 357 357 358 359 358 356 355 355 355 354 354 354 352 350 350 349 349 349
349 351 354 351 348 347 347 348 348 349 349 350 352 351 351 351 350 350 350 351 353 355 354 354 354 355 356 355 354 354 354 354 353 352 352 352 352 352 351 351 352 351 351 351 351 351 350 350 351 351 352 353 354 355 355 354 355 356 357 358 358 358 357 357 358 358 357 357 358 358 359 358 357 356 356 355 355 354 354 354 352 351 349 348 349
351 352 352 350 348 347 348 348 348 349 349 349 351 352 351 351 351 351 351 350 351 353 354 355 355 354 355 355 355 354 354 354 354 353 353 352 352 351 350 351 351 351 351 351 351 351 351 351 351 351 352 352 352 354 354 353 355 356 357 358 359 358 357 357 357 356 356 356 357 358 358 356 355 354 354 354 354 353 353 353 353 351 349 347 348
351 352 352 350 349 348 348 348 347 348 349 349 350 352 352 351 351 351 352 351 350 351 352 354 355 355 355 354 355 354 354 354 354 354 353 353 352 351 351 351 351 351 351 351 351 352 352 351 350 350 352 352 352 352 353 353 355 357 358 358 358 357 355 355 356 356 355 355 357 358 356 354 352 352 352 352 352 352 352 351 351 350 349 348 348
350 352 353 352 351 350 349 348 347 348 348 348 350 351 351 351 351 352 351 351 351 351 351 353 354 355 355 354 354 354 354 354 354 354 353 353 352 351 351 352 352 352 352 352 352 352 352 352 351 350 351 352 353 353 353 353 354 355 357 356 356 355 354 353 354 355 354 355 356 357 356 355 353 352 352 352 351 352 352 351 350 350 349 349 349
351 351 352 352 352 352 351 348 348 349 349 348 349 349 350 350 351 352 351 351 351 351 351 352 352 353 354 355 354 354 355 354 353 354 353 353 352 351 351 351 352 352 352 353 352 352 353 352 352 352 352 352 353 354 353 353 353 353 353 353 353 353 352 351 353 353 353 354 354 354 355 354 352 351 351 351 351 350 351 351 351 351 351 351 350
349 350 350 350 351 352 353 350 349 349 349 348 348 349 349 349 349 350 350 350 350 350 350 350 350 350 351 353 353 353 354 354 354 354 353 353 351 351 351 351 351 352 352 352 352 352 352 352 352 352 352 353 354 354 353 353 352 352 352 352 352 353 352 351 353 354 354 354 353 353 353 352 352 351 351 350 351 351 351 352 352 353 354 354 354
345 346 347 349 349 349 351 351 351 350 349 349 349 349 349 348 349 349 349 349 349 350 349 349 348 347 348 350 351 352 352 352 354 354 353 353 351 350 352 351 351 351 352 352 352 352 351 352 353 353 354 354 354 355 355 354 353 353 354 353 352 353 353 352 353 354 353 353 354 353 353 352 351 351 350 351 352 352 352 352 353 354 356 356 356
343 344 345 347 347 346 346 350 352 351 350 349 349 348 348 347 348 349 349 349 349 348 348 348 347 348 349 349 350 351 351 351 352 353 352 352 350 350 351 351 351 350 350 351 352 352 352 351 353 354 354 354 354 354 355 355 355 354 353 353 353 353 354 354 353 353 353 353 353 352 352 351 350 350 351 352 352 353 354 355 355 357 358 357 356
343 344 344 344 344 344 344 347 350 351 350 350 348 349 349 347 347 348 349 350 348 347 347 347 348 349 351 350 349 350 350 351 353 354 353 351 351 350 349 350 351 350 349 350 351 351 352 352 352 353 353 353 353 353 353 353 353 353 352 354 356 355 356 356 354 352 353 353 352 352 351 350 350 351 351 352 353 353 355 356 356 357 358 357 356
343 344 344 343 343 344 343 345 347 348 349 349 349 350 350 348 348 348 349 350 349 347 347 346 347 347 350 351 350 348 348 350 353 357 357 354 351 351 351 351 353 352 349 350 350 350 350 350 351 352 351 351 351 350 351 351 352 351 352 353 356 357 358 357 355 354 354 354 354 354 353 352 353 354 353 355 356 354 354 356 357 357 358 358 357
344 344 345 344 344 344 343 345 346 346 348 349 349 349 349 349 348 347 349 351 351 350 349 348 348 348 350 353 352 351 350 351 353 356 358 360 358 357 357 356 355 354 352 350 349 349 349 349 350 351 350 350 350 350 350 350 351 351 352 353 356 359 360 358 356 355 355 356 355 355 356 355 355 355 353 355 356 355 355 357 356 356 355 356 356
344 344 345 345 345 344 344 345 347 347 347 348 348 348 348 349 348 347 350 352 353 352 350 350 351 351 352 354 355 354 354 354 354 354 357 361 362 361 361 360 358 357 355 353 350 349 349 349 349 349 350 350 350 350 350 350 350 352 353 354 355 356 357 357 357 357 356 356 356 356 356 355 353 352 352 353 354 354 356 357 356 355 354 353 354
343 344 344 344 344 344 343 344 346 346 347 348 349 349 349 349 348 347 348 350 351 350 348 349 351 351 351 352 354 356 356 355 356 356 358 360 362 362 362 361 360 358 356 355 352 350 349 349 349 349 350 350 350 349 349 349 350 351 352 353 352 353 356 358 358 357 356 356 356 356 354 352 350 350 351 352 353 355 356 356 357 356 355 353 354
343 343 343 342 342 343 342 342 342 343 345 346 347 348 349 349 349 347 347 347 348 348 347 348 349 350 351 352 353 355 355 355 355 356 358 359 359 360 360 360 359 359 357 356 354 352 350 350 351 350 350 350 349 349 349 349 349 350 351 351 351 352 356 358 358 357 356 355 354 353 351 350 349 349 351 351 353 356 356 356 357 358 356 355 355
343 343 342 341 341 340 341 341 341 341 341 342 344 345 346 346 347 347 346 347 348 348 347 348 349 349 351 353 355 356 356 356 355 356 356 357 357 357 357 357 358 357 356 355 354 353 353 352 351 351 350 349 349 349 349 349 349 349 349 349 350 351 352 354 355 355 355 352 351 351 351 351 350 350 350 352 354 356 355 355 356 356 355 355 355
341 340 339 339 338 338 339 339 340 340 340 340 342 343 342 343 344 344 345 345 346 346 347 347 347 349 351 352 353 353 353 353 353 354 354 354 354 354 354 354 354 354 354 355 354 353 353 353 352 351 350 350 349 348 349 349 349 349 349 350 350 350 351 353 354 354 352 350 349 350 351 351 351 351 351 352 353 353 353 354 354 354 354 354 354
340 338 336 335 335 336 336 337 338 339 339 339 340 341 341 341 341 342 343 342 342 344 345 346 346 347 348 350 350 350 350 350 350 350 350 351 350 350 350 349 350 350 351 353 353 352 353 354 353 351 348 347 346 346 346 347 348 349 350 351 352 352 353 354 353 352 351 350 350 351 350 350 350 350 349 350 351 351 352 352 352 352 352 352 352
338 336 335 334 334 333 333 335 336 336 337 338 339 339 339 339 339 340 340 341 341 341 343 343 344 344 346 347 347 347 347 346 346 345 345 346 346 346 346 346 346 347 347 349 352 352 351 349 348 346 343 342 341 342 343 345 347 348 350 353 354 354 354 352 351 351 351 350 349 348 347 347 347 347 346 347 347 348 348 349 349 349 349 348 348
337 335 334 333 333 331 332 332 332 333 335 336 337 338 338 338 339 339 339 340 340 340 341 341 341 342 343 343 343 343 343 342 342 342 342 342 342 342 342 343 343 345 345 346 347 347 344 340 338 337 336 337 338 339 341 344 345 346 350 353 353 353 353 352 351 351 350 348 347 346 344 344 343 343 342 341 341 341 342 342 343 343 343 342 342
335 334 332 331 331 331 331 331 331 332 332 334 336 337 337 337 337 337 338 338 339 338 338 338 338 339 339 339 339 338 339 339 339 340 340 339 339 338 339 339 339 339 339 337 336 334 332 330 330 330 330 332 334 336 338 339 341 344 347 350 351 351 351 352 351 348 346 344 343 341 340 339 338 337 337 336 336 336 337 337 337 337 337 338 338
333 331 330 330 331 331 331 331 331 331 331 332 333 334 335 335 335 335 335 336 336 336 336 336 336 336 336 336 335 335 335 335 335 337 337 336 335 335 335 335 334 333 332 330 329 328 325 325 327 328 328 329 330 332 334 336 338 341 343 344 346 347 348 350 349 345 341 339 337 336 335 335 334 334 333 334 334 335 335 335 334 334 334 335 335
331 329 328 330 330 331 331 331 331 331 331 331 331 332 333 333 333 333 333 333 333 333 333 333 333 333 333 333 333 332 332 331 332 333 333 333 333 333 333 332 332 331 330 328 328 327 324 323 325 326 326 326 326 327 328 330 333 336 338 338 341 343 345 347 346 342 337 334 334 334 334 333 333 332 333 333 333 333 334 333 333 333 333 333 334
330 329 330 331 330 330 329 328 328 329 330 330 331 331 331 332 332 331 331 332 331 330 330 330 330 331 331 331 331 331 330 330 329 330 330 330 330 329 329 329 329 328 326 324 324 324 323 322 322 322 322 323 325 324 325 326 329 330 332 332 333 335 338 340 339 336 333 333 334 334 334 333 333 333 332 332 332 333 334 333 332 332 332 333 333
331 331 332 332 332 331 329 327 327 326 327 329 331 331 330 331 331 332 331 331 330 329 329 328 328 329 330 330 330 329 328 328 328 328 329 329 329 329 328 327 327 325 323 321 320 318 317 317 317 318 318 319 321 322 322 323 324 325 327 326 325 327 331 332 332 332 333 333 334 334 333 333 333 333 332 331 332 333 333 332 331 331 331 331 332
332 332 333 333 333 333 332 332 330 327 325 325 327 329 330 329 329 329 328 327 326 326 325 325 325 326 328 329 329 328 327 327 326 326 327 328 329 330 330 329 329 328 327 326 325 321 317 314 314 316 316 314 315 317 318 319 321 323 324 324 323 325 329 331 332 332 333 333 333 333 333 334 334 334 332 330 330 331 332 331 330 330 330 329 330
332 332 333 334 334 333 333 333 333 331 329 326 324 325 327 326 325 324 322 321 320 318 317 316 317 318 320 321 321 320 320 321 321 321 321 322 325 328 329 329 329 329 328 329 329 328 324 319 317 318 318 315 314 315 315 316 317 319 320 321 321 324 329 332 332 333 334 334 334 334 334 334 333 332 331 329 328 328 328 328 328 327 327 327 327
330 331 332 332 332 332 332 331 331 331 331 329 328 326 325 326 326 325 323 322 320 318 315 313 311 311 312 312 311 311 312 312 312 312 312 312 314 316 318 319 319 319 319 321 324 326 325 321 319 320 321 321 320 320 320 321 322 322 323 323 323 325 329 331 332 333 334 334 334 335 334 332 330 328 327 326 325 325 324 324 324 323 323 323 323
331 331 331 331 331 331 331 331 330 328 328 329 331 330 328 327 327 327 326 325 323 322 319 316 314 312 311 311 311 311 311 311 311 311 311 310 310 310 310 311 312 312 313 314 316 319 320 319 320 322 323 324 324 324 325 326 327 328 329 329 329 330 331 332 333 333 334 334 335 333 331 329 328 327 325 324 323 323 322 322 322 322 321 321 321
333 332 332 331 331 331 331 330 329 327 327 328 329 329 329 328 327 327 326 325 324 322 321 321 320 317 314 313 313 313 314 314 314 313 313 313 313 313 312 313 315 317 318 318 319 320 321 322 323 324 325 324 324 325 326 327 328 329 329 330 330 330 332 332 333 333 333 333 332 329 326 326 326 326 325 324 323 322 321 321 321 321 321 321 321
332 332 332 332 331 331 331 330 329 328 327 327 327 327 328 327 327 327 327 326 326 324 322 323 325 323 321 319 317 317 318 319 318 317 315 313 314 314 314 315 316 317 319 321 322 323 324 325 325 325 325 324 325 326 326 326 327 327 327 328 328 328 329 329 330 330 329 327 326 324 323 323 323 322 322 322 321 321 320 319 319 319 319 320 320
Wind_Speed
12 21 25 17 11 18 25 26 27 27 27 27 25 25 23 23 22 20 20 20 20 19 20 22 21 20 19 18 18 18 18 17 16 15 14 16 15 14 15 15 14 13 13 10 7 6 7 8 7 7 7 7 5 4 3 2 3 4 4 4 4 3 3 3 3 4 5 5 4 5 5 5 7 8 8 7 7 8 8 6 4 4 4 5 5
12 16 23 19 11 18 26 25 27 28 27 27 26 24 23 24 23 21 21 22 22 20 21 23 22 21 21 20 20 19 19 19 18 16 15 15 15 15 15 16 16 15 13 10 7 7 7 8 8 7 7 6 6 5 4 3 3 5 5 4 5 5 5 4 3 3 4 3 2 2 4 5 7 8 8 7 7 8 9 8 7 7 6 4 3
10 12 18 16 12 20 25 24 27 29 28 28 26 25 24 24 24 22 22 22 22 21 22 23 23 21 21 20 20 20 20 20 18 16 15 16 16 16 15 15 16 15 13 10 8 8 8 8 8 7 5 5 7 6 5 5 4 5 5 4 5 6 7 5 4 4 4 2 0 2 3 3 4 6 7 8 8 8 7 6 6 6 5 5 4
10 11 13 13 13 18 21 23 26 26 27 27 26 26 25 25 25 23 22 23 23 22 22 22 22 20 19 19 20 19 19 19 17 15 16 17 17 17 15 14 15 16 14 12 10 9 8 9 8 7 5 5 7 6 6 5 5 5 5 4 5 5 5 3 3 4 5 3 1 1 0 2 2 4 5 6 6 6 6 5 5 5 4 6 6
8 11 11 12 14 16 21 25 25 25 26 27 27 27 26 26 25 23 23 24 24 24 23 23 22 21 19 18 18 18 17 18 17 15 16 17 18 19 16 14 15 15 14 13 12 11 9 9 9 8 7 6 6 6 5 5 5 5 4 5 5 5 4 3 2 1 3 4 3 2 0 1 3 2 4 4 4 4 4 5 5 6 6 6 7
6 11 13 14 15 17 22 25 25 24 25 27 28 27 26 26 25 24 24 25 25 25 24 23 23 22 20 18 19 18 17 19 19 17 17 18 20 20 17 15 14 15 15 14 13 11 10 10 10 9 9 8 6 6 6 5 5 5 5 5 5 4 4 4 3 2 2 3 5 6 4 3 3 1 1 2 4 4 3 5 5 5 6 7 8
4 9 12 13 15 18 20 23 25 25 25 27 27 26 27 26 25 24 24 24 26 26 25 24 23 22 20 18 20 20 19 20 20 19 19 20 20 19 18 16 15 16 16 15 13 12 11 11 11 10 10 9 8 7 7 6 6 6 6 6 6 5 5 6 4 3 3 2 4 6 5 4 3 1 2 1 4 3 4 7 6 4 5 7 7
4 7 11 12 16 20 21 23 25 26 26 27 26 26 27 27 26 24 24 24 25 25 24 23 22 22 20 19 20 20 20 21 21 20 21 21 20 19 19 17 15 16 16 15 14 13 13 13 12 11 10 10 9 9 8 8 7 7 7 7 7 7 5 6 5 3 2 2 2 5 5 3 3 2 2 2 1 1 6 5 5 7 6 5 7
4 6 10 13 17 22 25 25 25 27 28 28 26 26 28 28 27 25 24 25 25 25 24 23 23 22 21 20 21 21 21 21 21 22 23 22 21 20 19 17 16 17 16 15 15 14 15 15 13 13 11 10 10 10 9 8 8 8 8 9 8 7 6 6 5 3 3 2 3 6 6 4 3 3 3 2 2 2 3 3 5 8 5 5 7
3 4 9 15 20 24 27 27 26 27 29 29 27 27 28 29 29 27 26 26 26 25 24 24 24 23 23 24 22 21 21 22 21 23 24 22 20 20 19 18 18 18 17 16 16 15 16 15 14 14 13 11 10 10 10 9 9 10 10 10 9 7 7 7 5 3 3 3 4 5 6 4 3 3 5 5 3 3 3 4 5 5 5 7 8
3 3 8 16 21 24 27 27 26 27 29 29 28 29 30 30 30 29 27 26 27 26 24 26 26 24 25 26 23 22 22 23 22 23 24 22 21 21 19 18 18 19 18 18 17 16 15 15 14 14 14 12 10 10 10 9 10 10 10 10 9 8 7 8 7 5 5 5 5 5 6 5 4 5 6 7 6 4 3 4 5 5 6 6 6
6 4 6 11 14 19 24 25 26 27 28 28 29 31 32 31 31 30 28 27 28 27 24 25 26 23 23 25 24 23 23 23 23 23 24 24 23 22 20 19 19 19 19 19 19 17 16 15 14 14 14 13 12 11 10 9 9 11 11 10 9 8 8 9 9 8 7 7 6 5 6 6 6 7 7 7 7 6 4 4 5 4 5 5 7
7 6 7 9 9 14 19 22 25 27 27 28 29 31 32 32 32 31 29 28 29 28 25 25 26 24 22 23 24 25 23 22 22 22 24 24 24 24 23 22 21 21 21 20 19 18 17 16 15 14 14 13 12 12 12 10 10 10 10 10 10 10 10 10 10 10 9 8 7 7 8 9 8 7 7 6 6 6 5 4 3 3 3 5 7
6 6 8 10 11 15 19 21 24 26 28 29 30 31 31 32 33 32 31 31 30 28 26 26 27 26 23 22 22 24 24 23 21 21 25 25 24 25 25 23 23 23 22 21 19 18 18 17 16 15 14 14 13 14 14 12 11 10 10 10 10 11 11 11 11 11 10 9 9 9 10 11 10 8 8 8 7 7 5 3 3 4 4 5 5
6 6 6 9 14 18 20 22 23 26 28 29 31 32 32 32 34 33 31 32 32 30 28 28 28 28 25 22 22 24 24 24 22 21 24 25 24 24 25 24 23 22 22 21 19 18 18 17 16 15 15 15 15 15 14 13 12 11 11 11 11 10 10 10 10 11 11 11 10 10 10 11 11 10 10 10 9 9 8 5 2 3 3 4 4
6 7 6 8 16 21 22 22 24 25 27 29 31 32 32 33 35 35 33 33 33 31 30 29 29 29 28 24 23 24 24 24 24 22 23 24 22 22 24 23 22 21 21 20 19 18 19 18 17 17 17 17 16 15 15 14 13 13 13 12 12 11 11 11 10 10 11 10 10 11 12 13 12 11 10 10 10 10 9 8 5 3 2 3 4
6 7 6 7 13 18 22 24 25 25 26 30 33 35 35 34 34 35 33 33 33 33 31 30 30 30 30 27 24 24 25 25 25 23 22 22 21 21 22 21 20 19 20 21 19 18 19 19 19 19 19 18 17 16 15 15 14 14 13 13 13 12 12 12 11 11 11 10 11 12 12 13 12 12 11 9 9 10 10 10 9 7 5 3 2
6 6 5 6 11 16 21 24 26 27 27 31 35 36 36 36 36 36 34 33 33 33 32 31 31 30 30 29 26 25 26 26 25 23 21 21 21 21 21 22 21 20 20 20 20 20 20 20 20 20 20 19 17 16 16 15 15 14 14 13 13 12 12 13 12 12 12 11 12 12 12 12 13 13 11 9 9 10 11 10 10 8 7 6 5
6 7 7 6 8 15 21 23 26 26 27 32 37 38 37 36 36 36 36 36 35 34 32 32 31 31 30 31 28 26 27 26 25 23 21 21 22 21 20 21 22 21 20 20 20 21 22 21 19 18 19 20 18 16 15 15 16 15 15 15 14 12 12 13 13 13 13 13 13 13 13 13 13 13 12 10 10 10 10 10 10 8 7 8 7
3 3 4 10 10 7 12 19 26 26 22 26 30 32 35 36 37 38 36 35 33 32 32 32 32 30 29 30 29 27 27 27 26 24 22 22 23 22 21 21 21 21 21 21 20 21 22 23 20 17 18 20 19 16 15 16 16 15 15 16 15 14 14 14 15 15 15 15 14 13 13 13 13 13 12 11 11 11 10 10 10 10 8 9 9
3 3 1 4 8 8 11 14 22 24 19 21 21 17 18 20 22 26 30 33 34 33 31 31 32 31 29 29 30 29 27 27 27 27 25 23 23 23 22 22 21 21 22 22 22 21 20 22 23 21 19 20 20 19 17 17 17 17 16 16 15 15 15 15 15 16 17 16 15 14 14 12 11 12 12 12 13 12 11 11 11 12 12 11 11
4 4 1 4 4 5 16 18 11 20 21 24 23 18 17 17 14 13 15 18 23 28 31 31 30 30 30 29 30 30 29 27 27 28 27 26 25 25 23 22 22 21 20 20 21 21 19 20 22 24 22 21 21 21 19 18 19 19 19 18 17 16 16 16 16 16 15 15 15 15 15 13 11 12 12 13 14 13 13 13 13 14 14 12 12
5 5 3 4 11 11 11 18 8 15 22 25 25 23 26 28 26 21 18 15 14 15 21 27 29 30 30 30 29 29 30 29 28 28 28 27 26 25 24 23 22 21 21 21 20 21 20 17 19 23 25 24 22 21 21 21 22 22 21 21 20 18 17 16 17 17 15 15 17 16 15 13 11 9 8 8 9 10 12 13 14 15 15 14 13
6 5 4 0 7 14 9 8 8 4 15 20 24 27 28 27 25 24 24 25 24 19 17 20 26 29 29 28 29 29 29 29 29 28 27 27 26 25 24 24 23 22 22 23 22 23 22 20 20 22 24 25 25 25 24 23 23 23 24 24 23 23 20 16 16 18 17 15 17 16 14 14 12 9 8 8 7 7 9 11 13 14 15 15 14
6 5 4 3 0 5 10 9 4 3 10 17 22 28 28 26 26 25 23 24 28 30 27 22 22 26 29 28 27 28 28 29 29 28 27 27 25 24 24 24 25 25 24 24 25 25 25 23 23 23 22 23 25 26 26 22 20 21 23 24 24 23 20 16 15 15 14 12 12 11 10 12 14 12 11 11 10 9 11 13 13 13 13 14 15
7 5 3 2 2 2 3 9 9 8 11 15 20 23 25 26 27 27 25 23 23 27 28 22 16 17 24 27 25 25 27 29 29 29 28 26 24 24 26 26 26 28 27 27 27 26 26 24 23 23 23 23 23 24 23 21 19 19 20 22 22 21 19 16 15 15 16 16 14 11 10 11 12 11 10 11 11 12 14 14 13 12 11 12 14
7 6 5 3 3 3 2 4 9 10 11 15 17 20 24 26 26 26 24 21 21 24 23 20 18 14 17 23 23 20 23 26 28 29 27 25 22 20 22 25 27 28 28 27 25 23 22 23 23 23 24 24 23 23 22 20 20 18 18 19 20 19 18 15 13 15 19 20 17 15 14 14 14 13 12 13 13 13 14 15 14 11 11 12 14
8 8 7 5 4 4 3 1 6 10 14 18 19 19 23 26 26 26 25 21 22 24 19 17 22 19 15 19 21 17 17 19 22 25 25 25 22 15 13 15 18 22 23 22 23 23 21 20 23 24 24 23 22 22 22 21 20 19 17 18 19 18 17 15 13 14 17 17 17 18 17 15 14 14 13 14 14 12 12 14 14 13 13 14 15
9 9 8 7 6 5 5 4 4 9 13 16 17 19 22 24 24 24 24 23 24 24 21 16 21 20 15 19 22 16 13 13 15 19 24 26 26 22 15 10 10 13 14 15 18 20 19 19 22 23 22 21 21 21 21 19 20 20 18 18 18 18 18 17 15 14 15 14 14 16 16 15 14 13 12 12 12 10 10 12 12 13 14 14 13
8 9 8 7 7 6 7 7 3 5 11 17 19 21 24 25 25 23 22 24 26 26 25 21 20 18 15 17 22 19 14 14 13 15 18 23 24 24 21 15 12 11 11 13 16 18 19 20 21 22 23 22 21 20 19 18 18 18 18 17 16 17 18 18 17 16 15 14 13 13 14 14 14 13 13 13 12 11 12 11 11 14 15 14 13
6 7 7 7 8 7 8 9 6 5 7 17 22 20 20 22 23 21 20 22 26 28 27 24 21 20 18 17 21 24 21 17 14 13 14 15 17 18 19 17 14 12 13 15 17 19 21 21 20 22 23 22 21 19 18 18 17 17 19 18 16 17 17 17 16 16 16 15 14 13 12 12 12 12 12 13 13 13 14 13 12 13 14 14 14
5 7 6 6 7 7 9 11 10 14 12 17 27 23 21 21 19 18 18 19 23 26 26 25 23 22 20 17 19 24 23 20 18 15 13 14 13 13 14 16 14 13 14 15 16 16 17 18 18 20 20 20 20 19 18 18 18 17 17 17 16 17 18 18 17 17 17 15 14 13 12 11 11 11 12 13 13 14 14 14 12 11 13 14 15
5 6 7 6 7 7 10 13 11 14 13 9 28 28 25 25 21 20 20 19 22 25 25 25 23 21 19 16 14 16 17 16 16 15 13 14 14 12 12 13 12 11 12 12 14 15 16 17 18 18 18 18 19 19 19 19 18 17 17 17 17 18 19 18 18 18 17 16 14 13 12 12 12 12 12 13 13 14 14 12 10 9 10 11 12
4 5 6 7 9 10 11 14 12 12 13 10 16 21 23 25 22 21 21 19 20 19 17 18 18 16 14 13 12 11 11 11 11 11 11 11 12 11 11 10 10 10 10 10 12 14 16 17 17 18 18 19 19 19 20 20 19 19 19 19 19 18 18 18 18 17 16 15 13 12 12 12 12 12 12 11 12 13 13 11 9 8 8 8 8
4 5 6 7 10 12 11 13 13 12 15 17 15 14 17 20 21 20 18 17 17 15 13 14 15 13 11 10 10 9 7 6 6 7 8 8 8 9 9 9 8 9 9 9 11 13 15 17 18 19 20 20 20 20 19 19 19 19 19 19 19 19 19 18 17 16 15 13 12 11 11 11 10 10 11 10 11 12 12 10 9 8 8 8 8
3 5 6 9 11 12 11 11 12 12 14 18 19 18 18 19 20 21 19 17 17 14 12 13 13 11 9 9 8 8 7 6 6 6 6 7 7 7 8 9 9 9 9 9 10 12 14 16 18 20 21 21 20 20 19 19 18 17 17 16 17 17 18 17 15 14 13 12 10 9 9 9 10 10 9 9 10 10 10 9 9 9 9 9 9
6 8 10 11 11 11 12 13 15 15 14 16 20 22 21 20 19 21 22 20 17 14 12 12 13 11 9 8 9 9 8 7 7 6 5 5 5 5 6 7 9 10 11 11 10 11 13 17 20 21 21 21 20 19 18 17 16 15 15 14 14 15 15 13 12 11 11 10 8 7 7 7 7 8 7 6 6 7 7 8 8 9 8 8 8
8 11 13 13 12 12 13 15 16 16 14 15 19 21 22 21 17 18 22 22 17 14 14 14 14 12 10 9 9 10 10 9 7 6 4 3 3 5 6 7 9 10 11 12 11 11 14 18 21 21 20 19 18 16 15 14 13 12 13 13 13 14 13 12 10 9 8 7 5 4 3 3 3 4 4 4 4 5 6 7 8 8 7 5 6
9 10 12 12 12 13 15 16 17 16 15 16 19 21 22 21 19 20 21 21 18 16 15 15 14 13 13 12 11 10 10 9 7 5 3 1 2 4 6 7 8 8 9 11 12 14 16 17 17 18 17 16 14 12 11 11 11 11 12 12 13 14 13 11 8 8 7 6 6 5 2 1 1 2 2 3 4 5 5 6 7 7 7 6 7
8 11 12 13 13 14 15 16 15 14 14 17 20 22 22 21 22 23 22 19 19 19 19 18 17 16 15 14 13 12 11 10 9 8 7 6 4 2 1 1 3 5 7 8 10 12 13 13 14 15 14 12 11 10 10 9 10 12 12 12 13 14 13 10 8 8 8 7 5 3 1 1 0 1 2 2 2 2 3 3 4 4 5 5 6
8 12 15 15 15 15 15 15 15 16 16 17 20 23 22 21 22 24 23 21 21 23 23 22 22 21 20 19 18 18 16 14 13 12 12 12 12 10 9 8 8 10 11 12 12 13 13 13 13 12 11 11 10 9 9 8 9 10 10 10 11 11 11 11 9 8 8 7 5 4 5 5 5 6 7 7 7 7 6 6 6 6 5 5 6
9 12 15 16 14 15 16 15 16 17 17 18 21 22 21 21 23 23 23 24 24 25 26 25 25 24 23 22 22 22 21 20 19 18 18 18 17 16 16 17 17 18 18 18 18 16 15 15 14 12 10 10 10 9 9 8 8 8 8 7 7 8 8 10 11 11 10 9 8 9 10 10 11 11 12 11 11 11 10 10 10 9 7 6 6
10 12 13 14 14 14 15 15 16 17 18 19 22 22 20 22 23 23 24 25 24 24 25 24 24 23 23 22 22 22 22 22 22 23 23 22 21 20 20 21 22 22 23 22 20 18 17 18 17 15 12 11 11 10 10 9 9 9 7 6 6 8 8 9 11 10 10 10 11 12 13 13 13 15 15 14 13 12 12 12 12 11 9 8 7
12 13 12 14 14 15 17 18 18 19 19 19 21 21 20 20 20 19 21 22 22 22 23 23 23 23 22 22 22 22 23 23 24 25 26 25 23 22 22 22 22 24 24 23 21 19 19 19 19 18 16 15 13 12 11 12 11 9 9 8 8 9 9 9 10 11 13 14 14 15 15 14 15 16 18 17 16 14 14 14 14 14 13 11 11
11 14 13 14 15 15 17 18 19 20 20 19 19 19 19 18 17 17 18 19 20 21 22 22 22 22 21 21 22 23 23 22 23 24 23 23 22 22 23 23 23 24 24 22 20 19 20 20 20 19 17 15 14 13 14 14 13 11 10 11 11 12 12 12 13 16 16 16 16 15 15 15 15 16 17 18 17 16 15 16 17 18 17 16 15
11 15 14 13 13 14 15 15 16 17 18 19 20 20 20 20 20 20 20 21 21 22 22 23 22 21 21 22 22 23 23 22 22 22 21 20 20 20 20 20 20 20 19 18 17 17 18 18 18 17 16 14 13 14 14 14 13 11 11 10 11 13 14 15 17 18 17 17 16 15 14 14 14 15 16 17 17 16 15 16 17 18 19 19 18
13 16 16 14 13 12 13 14 15 16 16 17 19 21 22 22 22 23 24 24 25 25 25 24 24 24 23 23 24 24 23 22 22 22 21 21 19 19 18 18 17 16 15 14 13 13 14 15 15 15 15 14 15 15 15 14 13 12 11 11 11 13 14 15 16 17 16 16 16 14 15 15 15 15 16 17 17 18 19 19 19 20 20 21 20
16 16 18 19 17 16 18 19 19 20 20 18 18 18 20 21 20 20 23 24 24 25 25 24 25 25 25 26 26 26 26 26 25 24 24 23 22 20 19 18 17 15 14 13 13 12 11 12 12 14 15 17 17 17 16 15 13 12 12 13 13 13 13 14 15 16 16 15 14 14 16 17 18 19 19 20 21 22 22 22 22 22 22 22 22
17 15 18 21 21 20 21 21 21 22 23 22 20 18 16 16 16 17 19 21 21 22 22 23 23 24 24 25 26 27 27 28 27 27 26 25 23 22 22 21 19 18 17 15 15 14 12 12 13 16 18 19 19 18 17 15 14 14 14 15 15 15 13 13 13 13 13 13 14 16 19 20 20 20 20 20 20 21 21 21 21 21 21 21 22
19 16 18 21 22 21 21 21 21 23 24 24 24 21 18 17 18 19 20 20 21 21 20 20 21 21 22 23 24 24 25 25 26 26 26 24 23 22 22 22 21 20 19 18 17 17 16 16 18 20 20 20 20 19 19 19 19 19 18 18 19 19 18 17 16 15 15 16 19 21 22 21 19 19 18 17 17 17 19 20 19 19 19 19 19
20 17 16 18 20 20 20 19 19 21 22 22 22 21 20 20 20 21 22 22 22 21 20 19 19 19 19 19 20 21 21 22 23 23 24 24 22 21 21 21 20 20 19 19 19 18 18 18 20 21 21 20 20 21 22 22 23 23 22 23 23 24 24 24 23 22 23 24 24 23 22 20 20 19 17 16 16 16 17 18 18 19 19 18 18
Wind_Direction
120 126 145 164 185 160 151 155 153 154 159 159 161 163 166 170 170 175 178 179 180 179 179 178 174 175 181 187 192 192 189 189 188 183 181 181 182 189 188 186 191 193 192 190 186 190 189 190 194 200 209 215 223 224 211 205 200 196 208 241 272 286 294 291 272 271 267 271 287 268 253 253 255 263 270 273 275 268 262 262 275 292 307 326 332
120 135 156 169 180 159 151 152 152 154 158 160 163 165 168 172 173 176 179 182 184 183 181 180 180 181 184 189 191 189 188 188 186 183 181 183 190 196 195 193 195 192 188 186 187 194 194 192 195 200 204 212 215 205 204 222 223 209 217 255 272 273 281 280 245 241 253 262 296 303 294 286 263 259 267 269 273 273 270 274 284 285 281 299 318
143 146 159 171 174 157 151 152 155 156 160 163 165 166 170 174 176 179 183 185 187 188 186 184 184 185 185 186 187 187 189 189 188 187 189 197 201 200 201 201 197 194 192 190 191 194 199 198 197 199 205 216 217 213 221 234 235 224 235 267 276 270 270 266 237 237 253 235 93 342 316 328 286 265 266 264 273 284 280 282 298 299 272 270 294
157 153 156 163 162 157 153 153 154 155 160 164 165 167 171 176 179 181 184 186 188 189 189 186 184 185 186 187 187 189 192 192 193 195 200 210 210 205 208 205 198 199 199 197 199 198 198 203 203 202 209 218 216 219 228 235 238 237 247 258 266 265 255 251 234 248 267 243 137 18 109 34 309 289 302 283 280 289 280 280 309 328 303 278 287
169 162 157 161 166 164 157 154 155 155 159 165 167 169 173 179 180 180 184 186 186 187 187 186 187 188 190 191 192 195 197 197 201 203 205 210 207 205 208 203 199 204 204 202 205 205 206 212 214 211 213 211 206 212 222 230 232 235 243 242 249 249 233 239 232 247 287 264 235 221 127 348 252 277 336 301 286 297 284 293 306 319 329 314 301
190 172 164 166 166 159 157 158 158 156 160 167 170 171 175 180 181 180 185 187 186 186 186 188 191 191 191 191 191 193 196 202 206 204 201 204 203 203 204 201 205 209 206 204 206 211 217 218 218 219 220 213 209 218 223 232 232 225 230 230 233 233 228 234 237 253 282 277 261 248 258 261 231 266 356 297 308 303 305 342 334 314 323 330 322
189 184 173 166 158 155 161 163 162 162 163 166 169 173 176 180 182 181 186 189 187 187 188 192 194 194 193 195 194 193 196 201 203 201 199 201 201 201 200 203 212 212 205 202 205 214 220 220 219 221 223 218 219 225 225 227 223 218 224 228 225 226 235 235 239 267 267 285 279 251 249 241 231 253 178 253 322 294 311 350 8 351 330 334 335
171 188 180 170 161 160 166 167 168 168 166 167 168 173 177 181 184 184 186 190 190 188 190 194 197 196 195 199 201 200 199 200 201 202 201 201 200 198 200 207 214 210 204 205 208 218 227 227 222 220 222 221 223 229 229 226 219 217 224 226 225 227 237 232 226 248 274 319 277 222 223 231 231 238 205 209 159 245 310 332 2 359 356 353 348
156 189 187 177 168 167 170 170 170 170 170 171 171 174 179 181 185 187 188 190 193 194 194 197 200 200 201 205 206 204 205 204 202 202 200 199 200 200 204 211 213 208 207 210 213 222 231 232 225 220 220 220 225 233 234 229 226 227 227 225 227 229 229 225 218 223 241 298 275 217 215 233 241 245 238 229 168 197 288 293 324 339 350 356 353
153 212 199 183 174 171 172 173 171 172 174 175 175 176 178 180 183 188 191 193 197 201 203 203 202 204 208 209 207 205 207 204 198 196 196 198 202 204 208 214 212 208 211 218 220 223 228 231 228 224 221 220 228 236 235 236 239 235 227 226 229 228 227 229 231 239 242 271 284 237 229 240 245 245 237 229 214 213 246 267 289 308 318 337 352
158 242 213 190 181 174 172 173 174 174 175 176 177 178 179 181 183 187 194 197 199 202 203 203 202 205 208 208 206 199 196 194 190 191 195 198 203 205 209 211 207 208 215 221 222 223 225 227 228 225 221 222 232 238 237 244 246 235 229 231 233 227 227 235 241 250 258 268 280 267 260 259 252 264 260 242 232 221 225 265 280 297 302 311 336
169 205 211 194 187 178 172 174 176 175 175 176 177 178 180 182 183 187 194 197 197 198 199 200 197 197 199 203 203 193 187 190 191 193 195 199 206 208 208 208 207 213 220 222 223 224 225 227 226 223 221 224 231 237 240 248 246 236 234 239 241 238 238 244 248 253 259 262 272 275 278 281 276 284 283 263 253 247 237 261 287 312 303 293 319
184 190 190 191 194 186 177 175 176 176 177 177 177 178 180 183 184 188 193 195 196 198 199 199 196 193 190 193 196 192 191 197 199 200 201 204 209 209 207 207 210 216 220 222 224 226 228 228 224 220 219 223 230 236 243 247 241 235 239 246 249 250 251 254 255 257 263 266 275 280 278 283 285 284 278 272 278 270 252 260 286 305 288 294 317
207 199 182 186 193 190 185 179 176 178 178 176 178 179 180 183 185 187 191 193 195 199 200 200 199 197 191 190 195 196 197 203 208 210 207 207 209 208 208 209 212 217 220 223 227 230 232 229 224 222 223 227 234 240 243 242 238 237 245 252 252 251 252 258 260 262 266 266 273 284 283 280 283 280 268 274 286 277 260 256 293 315 296 293 311
224 219 189 184 191 189 188 185 180 179 178 176 178 180 180 182 185 187 189 191 194 198 199 200 201 200 196 194 198 200 203 208 212 211 208 208 209 210 212 212 214 218 221 225 229 231 232 229 225 227 230 232 237 242 242 238 236 241 247 248 247 247 252 260 265 265 266 266 275 291 290 282 284 282 272 275 283 282 277 271 292 334 318 311 323
229 222 203 191 193 190 189 190 186 182 178 176 178 180 182 184 185 187 189 190 193 196 199 201 202 202 201 201 202 204 206 210 209 207 207 207 209 212 214 214 217 220 223 228 232 234 236 233 229 231 233 234 236 240 241 238 239 244 246 245 243 244 252 262 267 267 266 268 278 288 288 285 285 281 278 280 279 279 281 278 280 284 271 304 329
254 233 212 189 192 194 190 190 191 186 179 177 179 181 183 185 185 187 189 191 193 196 199 202 201 202 204 205 207 207 206 206 205 205 205 206 209 213 214 216 221 224 226 228 233 237 238 237 235 236 236 234 235 239 242 241 245 248 247 248 250 248 252 259 265 268 270 276 282 284 286 288 283 275 278 284 276 272 276 278 284 280 250 241 285
312 294 263 204 192 198 195 191 194 193 183 178 181 183 184 187 187 187 188 190 193 196 198 200 200 201 205 207 209 209 205 204 205 208 209 211 215 218 218 221 224 228 229 228 229 233 235 236 238 240 239 236 236 242 246 245 248 251 250 253 257 255 255 258 262 267 273 277 280 280 284 287 282 272 273 280 275 271 275 279 283 278 253 235 223
352 339 318 284 219 198 197 194 194 198 190 181 181 183 184 187 189 188 190 192 194 196 197 200 201 201 204 207 210 210 207 205 206 208 213 216 218 219 220 222 224 229 233 231 230 231 233 235 236 237 236 233 235 242 247 248 249 251 250 252 256 257 257 258 259 263 269 273 275 278 285 290 283 272 267 271 273 273 277 277 275 268 251 248 241
342 334 332 316 298 238 212 205 196 197 193 179 179 183 185 187 189 189 191 191 193 195 197 199 200 202 205 207 209 211 211 210 209 209 212 215 217 218 220 222 224 229 233 235 236 233 233 235 233 230 227 226 230 236 242 246 247 247 246 248 253 255 256 258 261 264 267 272 275 277 285 292 285 271 263 265 268 271 273 269 267 265 252 253 251
291 280 71 329 305 302 293 251 201 189 181 166 167 174 176 182 188 190 190 189 190 194 197 200 201 202 205 208 209 210 212 213 214 214 215 215 217 221 223 225 229 233 235 236 236 234 234 235 233 230 225 225 228 230 236 242 243 242 242 245 250 252 253 256 262 269 270 268 270 273 279 288 288 275 267 270 271 271 272 264 257 258 252 250 248
282 275 194 104 135 232 285 286 212 173 168 161 160 163 166 176 188 195 197 195 194 194 196 200 202 203 205 207 209 210 212 214 215 217 218 219 220 222 223 227 232 237 237 235 235 236 238 237 234 231 228 230 231 232 236 239 239 240 241 242 245 249 254 257 259 265 268 264 262 265 267 273 286 288 283 283 281 280 279 269 257 255 255 254 249
293 278 260 113 124 159 252 291 268 166 160 157 157 163 173 182 188 189 192 199 206 210 207 203 202 205 207 208 209 211 212 213 215 217 219 220 223 223 222 225 229 233 235 234 234 237 239 238 234 232 232 233 235 237 239 238 237 238 238 238 240 242 247 256 260 261 260 258 258 259 262 272 292 310 303 283 275 278 279 268 257 257 260 260 254
306 298 293 16 129 145 172 279 301 154 151 155 158 164 171 179 184 186 189 191 194 205 219 217 209 208 208 209 210 211 212 214 216 219 220 221 225 226 225 226 228 231 235 235 232 233 235 234 233 233 233 234 236 237 238 240 239 237 237 239 241 242 242 243 250 259 265 264 261 259 260 263 269 280 281 268 254 250 259 254 247 248 254 256 252
313 309 319 334 15 154 164 183 218 165 162 167 165 166 168 171 177 183 187 190 191 196 204 212 214 214 212 211 212 212 212 215 216 218 221 223 226 228 229 231 232 232 235 236 234 232 232 233 234 233 231 232 235 235 237 241 241 240 241 244 247 250 250 243 242 259 274 272 261 261 262 254 253 256 257 255 247 232 237 242 236 233 239 245 246
323 322 335 5 9 330 184 170 170 170 170 173 172 169 166 166 173 181 185 187 192 196 197 198 207 220 218 212 212 214 214 217 219 219 221 223 226 229 232 234 236 236 236 237 237 234 232 232 233 231 228 231 235 236 238 240 241 243 244 247 250 253 254 249 247 258 264 258 251 254 259 255 255 254 244 240 240 235 237 238 228 220 225 233 239
339 344 348 3 40 9 347 158 164 168 171 179 181 174 167 165 170 179 185 186 190 192 190 186 189 211 224 210 203 208 212 215 220 220 219 221 223 229 234 237 238 237 236 236 234 232 233 235 232 229 229 232 236 239 241 242 246 250 248 247 250 253 252 248 246 253 255 253 251 251 254 257 256 256 255 248 242 238 238 236 227 221 224 226 228
350 353 353 360 28 29 8 78 157 170 180 187 186 177 171 171 173 178 185 190 188 179 170 171 179 192 218 211 196 197 206 213 218 217 217 218 216 216 221 226 230 229 229 233 231 228 228 231 231 230 229 231 235 238 240 241 245 247 247 248 248 249 250 241 234 247 254 253 254 255 259 263 260 257 258 252 243 239 237 233 226 223 227 229 228
354 353 352 357 9 14 6 19 131 165 180 183 180 175 173 174 177 177 179 184 181 166 155 161 173 179 201 209 200 197 198 201 208 211 216 218 216 217 219 221 229 226 222 226 225 222 221 223 225 227 227 230 234 237 239 242 243 242 242 244 243 244 247 242 235 245 253 251 253 256 256 259 262 260 252 249 250 244 235 233 229 222 225 232 236
355 353 350 350 352 353 359 9 56 164 186 183 178 177 176 176 179 177 169 167 170 167 165 170 173 176 191 200 198 200 199 191 186 191 208 216 217 222 230 238 246 238 223 220 218 216 220 224 226 227 230 234 236 237 241 243 244 243 239 236 237 241 244 242 237 237 241 245 249 252 251 253 258 257 245 245 254 252 242 243 241 232 231 237 240
352 352 349 347 344 345 352 355 355 325 245 201 184 174 170 171 173 169 156 154 162 168 174 178 181 189 199 197 196 204 211 208 192 175 182 199 207 216 222 223 224 220 213 216 217 216 220 225 227 229 232 234 235 237 239 238 239 242 238 233 236 240 238 236 233 230 234 243 248 248 246 244 247 250 247 244 247 250 247 243 241 243 247 250 250
349 348 346 340 338 343 345 339 336 338 310 211 182 162 155 160 157 147 143 148 158 165 173 179 182 189 194 193 195 204 211 213 208 192 176 176 184 197 207 208 209 209 206 210 214 216 219 222 222 225 229 231 234 235 233 231 234 236 233 231 231 232 232 233 232 232 235 241 243 243 240 239 245 252 254 249 242 240 239 236 237 247 255 257 259
348 351 356 353 346 345 344 340 346 357 351 185 168 156 153 159 156 149 149 153 157 160 165 170 171 175 183 185 186 193 200 206 212 210 198 186 184 192 206 214 220 224 222 221 220 218 219 219 219 223 227 229 230 230 227 226 229 229 227 225 226 227 231 234 232 233 237 238 239 240 242 250 256 253 250 250 244 234 229 231 239 252 258 260 262
4 11 15 14 3 357 356 356 4 25 35 80 134 144 151 154 153 154 159 160 162 164 164 161 158 160 170 179 179 179 188 201 209 212 207 199 196 202 211 220 226 229 230 229 224 221 220 222 222 223 226 227 227 226 225 224 226 228 228 227 227 226 225 227 229 234 238 240 241 247 255 263 262 251 243 244 241 232 228 231 240 254 267 269 264
28 37 31 24 9 1 4 7 12 40 62 69 82 108 129 137 141 148 155 157 159 166 167 156 151 150 154 167 176 173 173 182 191 199 205 209 213 215 216 219 222 224 228 231 228 224 223 222 221 221 222 223 222 220 219 220 221 225 228 230 229 224 219 220 227 236 240 241 246 255 265 269 262 250 242 236 230 228 228 235 249 263 270 270 264
33 45 38 31 20 8 12 24 34 54 75 80 83 90 97 106 118 128 131 133 136 142 146 140 135 137 143 148 154 153 150 154 163 178 196 212 224 226 224 226 227 228 231 232 227 223 222 220 219 219 218 217 216 216 216 217 219 221 225 228 228 224 220 220 225 233 239 243 253 259 261 260 257 254 250 238 231 235 239 249 266 272 270 267 266
51 52 53 49 41 31 33 46 54 60 72 88 93 96 95 93 99 110 115 117 117 117 116 110 109 118 131 137 141 144 146 148 152 158 173 198 221 234 237 239 241 239 235 234 228 221 223 222 219 218 216 215 215 216 216 217 218 218 220 223 223 220 217 215 218 226 235 244 259 262 256 257 262 268 272 265 253 256 264 271 275 272 267 265 265
70 66 67 61 53 48 52 60 65 65 74 92 99 99 99 96 94 99 105 106 102 99 98 96 97 104 113 120 125 126 128 132 134 134 143 174 220 246 252 248 246 242 235 233 231 224 223 224 220 215 212 211 211 212 213 213 213 214 215 214 213 210 205 206 209 215 226 231 222 214 232 257 272 279 286 286 282 282 283 281 277 272 268 265 262
81 81 76 70 65 62 64 67 67 66 74 89 98 99 96 93 91 89 90 92 92 91 93 95 95 97 100 103 104 102 101 102 100 101 107 129 253 267 270 263 256 246 232 231 232 227 221 215 206 201 199 199 199 198 201 206 206 209 211 206 201 197 193 193 191 188 193 191 172 160 168 215 246 276 297 296 294 294 293 287 279 274 275 277 277
94 93 85 81 77 72 70 70 68 69 76 85 92 92 87 84 85 83 79 81 87 91 92 94 96 96 95 95 96 95 93 90 88 87 84 78 70 51 355 272 220 196 190 195 200 200 193 181 173 175 176 177 178 174 174 183 190 196 202 202 196 188 177 170 168 172 176 171 157 144 127 121 66 17 23 14 1 349 330 318 310 309 310 311 310
113 99 92 90 86 80 78 77 76 77 78 84 88 86 83 82 83 82 81 83 89 92 92 91 90 90 90 89 91 94 95 96 96 93 89 84 81 80 83 92 107 121 125 124 128 134 135 135 140 143 141 142 146 145 144 149 160 173 185 195 191 174 161 156 151 148 147 138 120 99 89 85 79 76 75 70 66 64 58 52 44 32 17 1 351
118 102 100 99 96 92 88 83 83 81 78 82 86 84 84 85 84 86 91 94 94 93 92 90 88 86 85 84 84 86 88 90 92 93 91 89 88 89 92 95 99 101 100 99 102 105 102 104 110 110 107 113 115 115 118 119 126 141 157 174 175 162 158 160 151 136 125 115 102 93 91 89 87 86 82 76 73 71 69 67 62 51 39 23 11
122 109 108 106 100 96 93 88 86 86 83 84 85 85 86 88 87 90 95 96 94 92 91 91 89 87 87 86 85 85 85 86 88 91 91 88 87 89 91 94 97 97 95 95 97 100 98 96 97 93 88 89 93 98 107 109 109 117 122 126 139 142 147 156 148 130 110 101 101 101 98 94 90 86 80 74 71 68 66 63 58 51 45 40 39
125 117 110 106 100 96 96 95 93 92 90 88 88 88 88 88 88 92 93 92 92 92 91 91 92 92 92 91 90 89 88 87 87 88 89 87 86 86 87 89 91 91 92 92 93 95 94 91 89 86 81 80 82 88 97 99 97 102 106 104 106 113 121 130 124 108 102 105 108 106 103 99 93 86 80 74 70 68 66 64 60 54 50 52 56
117 121 112 107 106 101 99 98 96 95 95 95 96 95 93 93 97 98 97 96 97 95 92 92 94 96 97 97 96 93 90 88 87 87 88 88 87 86 85 85 85 86 87 87 86 86 86 85 84 81 77 77 79 81 86 90 90 91 96 97 97 100 106 112 111 107 108 110 108 106 104 98 91 87 82 76 72 73 74 71 67 62 57 55 57
112 120 117 112 110 107 105 103 100 99 99 100 102 102 101 102 104 103 102 102 100 98 96 95 95 97 100 101 99 97 94 92 90 88 88 89 89 89 88 86 84 82 80 79 79 78 79 80 80 78 77 79 80 78 79 83 86 87 90 95 102 106 105 107 111 112 112 109 107 105 96 84 82 89 87 78 73 74 75 72 69 65 59 55 54
110 115 118 116 107 98 93 91 90 94 98 103 108 108 108 109 109 106 103 101 98 96 96 96 97 98 99 100 99 98 97 95 93 91 90 89 89 90 91 90 89 87 84 83 81 78 77 78 77 78 82 86 87 86 85 84 83 85 89 96 106 110 108 107 111 114 113 109 105 97 85 81 86 94 90 80 75 75 72 69 67 64 61 60 58
98 103 108 107 101 94 89 85 83 86 91 100 113 120 118 114 112 110 106 102 99 96 95 95 97 97 97 98 97 97 96 95 93 91 89 88 87 88 88 87 86 87 89 92 93 92 89 86 84 86 90 91 89 88 87 86 87 90 92 97 103 107 108 110 113 115 113 108 100 90 88 92 93 89 83 78 76 74 71 68 65 63 62 62 61
96 97 101 102 99 95 92 88 86 87 88 92 104 121 127 121 118 120 116 108 102 99 97 97 97 97 97 97 97 96 95 94 93 91 88 86 85 85 86 85 84 84 86 90 95 98 99 100 100 98 96 92 86 80 77 78 85 90 92 95 98 101 105 110 114 118 116 110 101 94 93 95 91 85 81 77 74 73 71 68 64 61 59 58 58
93 92 94 98 99 97 95 91 88 90 91 93 98 109 118 118 119 123 121 115 108 105 103 102 99 98 99 98 97 96 95 93 92 91 89 88 86 84 85 85 85 84 84 86 88 90 95 100 101 100 95 89 82 76 74 78 86 91 94 97 100 102 104 107 112 117 116 110 103 97 93 91 90 88 85 79 75 74 72 68 64 60 57 56 56
92 87 81 85 91 94 93 91 89 90 91 93 96 101 107 111 114 116 116 113 110 108 108 107 104 102 101 100 99 99 97 94 92 90 90 91 90 88 86 86 86 86 85 84 84 85 89 95 98 97 93 87 81 77 78 83 89 92 94 97 100 102 104 106 109 110 106 101 98 94 90 89 89 88 85 82 80 77 72 68 64 61 59 60 60